Find Starlink 30988

NORAD ID: 58529 Int'l Des: 2023-191 Owner: SPXS Country: US Constellation: starlink operational
LEOCIRCULAR

实时位置

正在加载3D地球...

关于 Starlink 30988

正在加载描述...

即将过境

Passes for default location (London). Set your location on the main map for personalized predictions.

高度历史

Loading altitude history...

两行轨道根数

1 58529U 23191X 26107.08109163 .00000203 00000-0 16915-4 0 9990
2 58529 43.0011 246.5405 0001329 278.9775 81.0926 15.27577436131341
Epoch: Apr 17, 2026 • Age: 12 hours

当前状态

高度 492.1 km
速度 7.62 km/s
星下点 -34.77°S, 136.35°E
发射日期 Dec 7, 2023
运行时间 2.3 years
类型 internet

技术详情

分类 Payload
质量 730.00 kg
干质量 700.00 kg
总质量 730.00 kg
长度 0.30 m
直径 4.10 m
跨度 29.00 m
形状 Box + pan
制造商 SPXS
平台类型 Starlink V2M
阶段状态 In Orbit
所有者/国家 SPXS/US

Most Searched